Location: Platte
(43.3870°N, 98.8440°W)
Time: 05:08:47
(UTC-05:00)

Landsat 7 - Visible Passes

Search period start: 28 April 2017 00:00
Search period end: 08 May 2017 00:00
Orbit: 702 x 703 km, 98.2° (Epoch: 26 April)

Date Brightness Start Highest point End Pass type
(mag) Time Alt. Az. Time Alt. Az. Time Alt. Az.
28 Apr 3.7 23:08:19 67° ESE 23:08:46 72° ENE 23:13:31 10° N visible
29 Apr 6.3 00:47:12 13° W 00:47:12 13° W 00:49:05 10° WNW visible
29 Apr 5.3 22:12:37 19° E 22:14:07 22° ENE 22:17:47 10° NNE visible
29 Apr 4.6 23:51:30 43° W 23:51:34 43° W 23:56:07 10° NNW visible
30 Apr 4.0 22:55:48 49° ESE 22:56:35 55° ENE 23:01:14 10° N visible
01 May 6.0 00:34:41 17° W 00:34:41 17° W 00:37:43 10° NW visible
01 May 5.6 22:00:07 14° E 22:02:02 18° ENE 22:05:10 10° NNE visible
01 May 4.1 23:39:00 55° WSW 23:39:19 57° W 23:44:02 10° NNW visible
02 May 4.4 22:43:18 36° ESE 22:44:26 42° ENE 22:48:55 10° N visible
03 May 5.6 00:22:11 22° W 00:22:20 22° W 00:26:01 10° NW visible
03 May 5.8 21:47:37 10° E 21:49:59 14° ENE 21:52:22 10° NNE visible
03 May 3.8 23:26:29 65° SSW 23:27:06 76° WSW 23:31:53 10° NNW visible
04 May 4.8 22:30:48 26° ESE 22:32:18 32° ENE 22:36:31 10° N visible
05 May 5.2 00:09:41 28° WSW 00:10:01 28° W 00:14:09 10° NW visible
05 May 6.0 21:36:54 10° ENE 21:37:57 11° ENE 21:39:00 10° NE visible
05 May 3.7 23:13:59 59° SSE 23:14:53 83° ENE 23:19:40 10° NNW visible
06 May 6.4 00:52:52 11° W 00:53:13 11° W 00:54:22 10° WNW visible
06 May 5.1 22:18:18 20° E 22:20:11 25° ENE 22:24:04 10° N visible
06 May 4.8 23:57:11 36° WSW 23:57:44 37° W 00:02:10 10° NNW visible
07 May 3.9 23:01:29 46° SE 23:02:42 63° ENE 23:07:25 10° N visible
